Regional Weather Roundup
Issued by NWS

Home | Current Version | Previous Version | Text Only | Print | Product List | Glossary Off
Versions: 1 2 3 4 5 6 7 8 9 10 11 12 13 14 15 16 17 18 19 20 21 22 23 24 25 26 27 28 29 30 31 32 33 34 35 36 37 38 39 40 41 42 43 44 45 46 47 48 49 50

000
ASUS43 KMPX 162010
RWRMN
WEATHER ROUNDUP FOR MINNESOTA
NATIONAL WEATHER SERVICE TWIN CITIES/CHANHASSEN MN
300 PM CDT MON OCT 16 2017


NOTE: "FAIR" INDICATES FEW OR NO CLOUDS BELOW 12,000 FEET WITH NO
SIGNIFICANT WEATHER AND/OR OBSTRUCTIONS TO VISIBILITY. N/A MEANS
CURRENT SKY AND/OR WEATHER CONDITIONS ARE NOT AVAILABLE.

MNZ060>063-068>070-162100-
   Twin Cities Metro

CITY           SKY/WX    TMP DP  RH WIND       PRES   REMARKS
TWIN CITIES    MOSUNNY   64  35  34 SW12      30.10F
ST PAUL        SUNNY     63  36  36 SW12      30.10F
CRYSTAL        SUNNY     63  34  33 S14       30.08F
BLAINE         SUNNY     64  36  34 SW13      30.08F
LAKEVILLE      SUNNY     63  36  36 S9G17     30.10F
EDEN PRAIRIE   SUNNY     65  36  34 SW14      30.08F
SOUTH ST PAUL  SUNNY     64  34  33 S12       30.10F
LAKE ELMO      FAIR      63  37  39 SW13      30.11F
$$
MNZ001>005-007-008-013>017-022>024-027-028-162100-
   Northwest Minnesota

CITY           SKY/WX    TMP DP  RH WIND       PRES   REMARKS
BEMIDJI        SUNNY     62  34  35 SW16G23   29.89F
HALLOCK        SUNNY     66  34  30 W17G24    29.77F
ROSEAU           N/A     64  39  39 SW22G31   29.77F
WARROAD        SUNNY     63  39  42 SW20G26   29.77F
CROOKSTON      SUNNY     70  36  28 W20G29    29.83F
FOSSTON        SUNNY     63  34  34 S24       29.88F
DETROIT LAKES  SUNNY     63  37  39 SW18G26   29.92F
MOORHEAD       SUNNY     70  36  28 SW20G25   29.89F
PARK RAPIDS    SUNNY     63  36  36 SW18G28   29.93F
MAHNOMEN       FAIR      64  39  41 S22G28    29.87F
$$
MNZ006-009>011-018-025>026-162100-
   North Central Minnesota

CITY           SKY/WX    TMP DP  RH WIND       PRES   REMARKS
BAUDETTE       SUNNY     64  35  34 S22G29    29.79F
FLAG ISLAND    SUNNY     61  36  39 S21G28    29.74F
INTL FALLS     MOSUNNY   62  33  33 S13G22    29.84F
WASKISH        MOSUNNY   66  36  32 SW17G28   29.83F
BIG FORK       CLOUDY    61  36  39 SW14G25   29.91F
LONGVILLE      SUNNY     63  34  34 S12G20    29.95F
GRAND RAPIDS   SUNNY     61  35  37 SW12G18   29.97F
CRANE LAKE     MOSUNNY   57  32  38 S12G18    29.92F
ORR            MOSUNNY   59  28  31 S14G22    29.89F
COOK           SUNNY     59  34  38 S14G23    29.94F
WALKER         FAIR      62  35  35 S10G20    29.92F
$$
MNZ012-019>021-037-162100-
   Northeast Minnesota

CITY           SKY/WX    TMP DP  RH WIND       PRES   REMARKS
DULUTH         MOSUNNY   59  35  40 SW17G23   30.01F
ELY            SUNNY     55  30  38 SW12G21   29.96F
HIBBING        SUNNY     60  32  34 SW10      29.96F
EVELETH        SUNNY     59  23  25 SW15G24   29.98F
DULUTH HARBOR  SUNNY     61  37  41 SW13      30.02F
TWO HARBORS    SUNNY     63  43  48 S16       29.99F
SILVER BAY     MOSUNNY   59  39  47 SW13      29.98F
G MARAIS ARPRT CLOUDY    48  37  66 S7        30.00F
$$
MNZ029>031-032-039>041-046>048-054>057-064-162100-
   West Central Minnesota

CITY           SKY/WX    TMP DP  RH WIND       PRES   REMARKS
FERGUS FALLS   SUNNY     66  39  37 SW18      29.94F
WHEATON        SUNNY     72  32  23 SW14G21   29.96F
MORRIS         SUNNY     70  39  32 SW15      29.98F
ALEXANDRIA     SUNNY     65  38  36 S16       30.00F
ELBOW LAKE     FAIR      66  38  35 W15G22    29.97F
WADENA         SUNNY     63  39  42 S17       29.96F
GLENWOOD       SUNNY     66  37  34 SW14G21   30.01F
APPLETON       SUNNY     72  32  23 SW9G21    29.98F
BENSON         SUNNY     68  36  30 SW12G20   30.01F
ORTONVILLE     SUNNY     72  36  26 NW12G20   29.97F
MADISON        SUNNY     73  34  23 SW14G20   29.99F
WILLMAR        FAIR      70  36  28 SW10G20   30.03F
$$
MNZ033>034-036-042>043-049>051-058-059-162100-
   Central Minnesota

CITY           SKY/WX    TMP DP  RH WIND       PRES   REMARKS
ST CLOUD       SUNNY     63  37  38 SW16G22   30.04F
SAUK CENTRE    FAIR      64  38  39 S20       30.00F
PAYNESVILLE    SUNNY     66  38  36 SW8       30.04F
AITKIN         SUNNY     61  34  36 S12       29.98F
PINE RIVER     SUNNY     63  36  36 SW14G21   30.00F
BRAINERD       SUNNY     62  34  35 S14G22    30.00F
STAPLES        SUNNY     63  34  34 SW13      29.98F
LONG PRAIRIE   FAIR      63  37  39 S12       30.00F
LITTLE FALLS   SUNNY     63  27  25 S15G21    30.02F
LITCHFIELD     SUNNY     68  37  32 SW8G16    30.05F
BUFFALO        SUNNY     64  35  34 S8        30.07F
MAPLE LAKE     SUNNY     66  39  36 SW10G17   30.07F
HUTCHINSON     SUNNY     68  38  32 SW12      30.07F
$$
MNZ037-044-045-052-053-162100-
   East Central Minnesota

CITY           SKY/WX    TMP DP  RH WIND       PRES   REMARKS
PRINCETON      SUNNY     64  37  36 S13       30.06F
MORA           SUNNY     59  34  38 SW10      30.07F
CAMBRIDGE      SUNNY     64  43  45 SW10      30.07F
RUSH CITY      SUNNY     61  33  35 SW12G18   30.06F
MOOSE LAKE     SUNNY     61  36  39 SW13      30.01F
HINCKLEY       FAIR      61  37  41 SW12G20   30.05F
CLOQUET        SUNNY     61  28  29 SW13      30.01F
MCGREGOR       SUNNY     59  36  41 S13G20    30.01F
$$
MNZ071>073-080-081-089-090-097-098-162100-
   Southwest Minnesota

CITY           SKY/WX    TMP DP  RH WIND       PRES   REMARKS
MONTEVIDEO     SUNNY     72  37  28 SW9G16    30.00F
GRANITE FALLS  SUNNY     70  38  30 S14G22    30.03F
CANBY          SUNNY     70  33  25 SW20G29   29.99F
MARSHALL       SUNNY     70  36  28 SW20G26   30.01F
REDWOOD FALLS  SUNNY     69  34  27 S18G25    30.03F
OLIVIA         SUNNY     70  37  30 SW17      30.03F
PIPESTONE      SUNNY     70  36  28 SW16      30.04F
WORTHINGTON    SUNNY     69  34  27 S16G23    30.08F
JACKSON        SUNNY     66  32  28 S17       30.10F
TRACY          SUNNY     69  37  31 SW17G25   30.04F
SLAYTON        SUNNY     68  34  28 S17G25    30.06F
$$
MNZ065>067-074>077-082>085-091>093-162100-
   South Central Minnesota

CITY           SKY/WX    TMP DP  RH WIND       PRES   REMARKS
MANKATO        SUNNY     67  35  30 SW16G22   30.09F
NEW ULM        SUNNY     66  34  30 S16       30.06F
ST JAMES       SUNNY     68  34  28 SW15G23   30.09F
FAIRMONT       SUNNY     67  35  30 SW18G25   30.10F
GLENCOE        SUNNY     67  36  31 SW9G17    30.07F
FARIBAULT      SUNNY     66  36  32 S15       30.11F
OWATONNA       SUNNY     66  36  32 S14G21    30.11F
WASECA         SUNNY     64  34  32 SW13      30.11F
ALBERT LEA     SUNNY     66  34  30 SW13G22   30.13F
$$
MNZ078>079-086>088-094>096-162100-
   Southeast Minnesota

CITY           SKY/WX    TMP DP  RH WIND       PRES   REMARKS
ROCHESTER      SUNNY     63  37  38 W15       30.15F
RED WING       SUNNY     66  28  24 SW9       30.10F
STANTON        SUNNY     65  35  31 SW10G21   30.10F
DODGE CENTER   SUNNY     64  30  27 SW17G24   30.13F
WINONA         SUNNY     63  32  31 W3        30.15F
AUSTIN         SUNNY     64  34  32 SW14      30.14F
PRESTON        SUNNY     62  32  32 W9G17     30.16F
$$
ABBREVIATIONS USED IN REMARKS
   TC - TEMPERATURES IN CELSIUS
  WCI - WIND CHILL INDEX
   HX - HEAT INDEX
  VSB - VISIBILITY
$$




USA.gov is the U.S. government's official web portal to all federal, state and local government web resources and services.